DRRN Airport Information

Runway Information
Runway 09 Length 0 ft width 0 ft
Elevation 729 ft Threshold 0 ft Heading 0
Runway 27 Length 0 ft Width 0 ft
Elevation 707 ft Threshold 0 ft Heading 0
Runway 09L Length 5315 ft width 131 ft
Elevation 728 ft Threshold 0 ft Heading 87
Runway 27R Length 5315 ft Width 131 ft
Elevation 715 ft Threshold 0 ft Heading 267
Runway 09R Length 9843 ft width 148 ft
Elevation 728 ft Threshold 0 ft Heading 87
Runway 27L Length 9843 ft Width 148 ft
Elevation 705 ft Threshold 0 ft Heading 267
Airport Frequencies
Type ACC Name NIAMEY CON Frequency 131.3 MHZ
Type INFO Name NIAMEY INF Frequency 565.2 MHZ
Type TWR Name NIAMEY TWR Frequency 119.7 MHZ
Airport Navaids
Type VOR-DME Name Niamey Frequency 114100 KHZ
Airport Weather Information & NOTAM
ADDS - METARS form results

(0132 UTC 19 August 2018)
 
METAR text: DRRN 190100Z 20002KT CAVOK 26/25 Q1013 NOSIG
Conditions at: DRRN (NIAMEY (CIV/MIL), NE) observed 0100 UTC 19 August 2018
Temperature: 26.0°C (79°F)
Dewpoint: 25.0°C (77°F) [RH = 94%]
Pressure (altimeter): 29.91 inches Hg (1013.0 mb)
Winds: from the SSW (200 degrees) at 2 MPH (2 knots; 1.0 m/s)
Visibility: 6 or more miles (10+ km)
Ceiling: ceiling and visibility are OK
Clouds: unknown
Weather: no significant weather observed at this time